Casper, WY

7:43 AM MST on December 14, 2019 (GMT -0700)
Natrona County International

Weather History for KCPR - October, 2019

Change the Weather History Date:

Tuesday, October 8, 2019

  Actual Average Record
Temperature  
Mean Temperature 58 °F 48 °F  
Max Temperature 73 °F 63 °F 78 °F (1953)
Min Temperature 43 °F 33 °F 12 °F (1970)
Degree Days  
Heating Degree Days 7 17  
Month to date heating degree days 141 128  
Since 1 July heating degree days 312 413  
Cooling Degree Days 0 0  
Month to date cooling degree days 0 0  
Year to date cooling degree days 441 422  
Growing Degree Days 8 (Base 50)    
Moisture  
Dew Point 18 °F    
Average Humidity 21    
Maximum Humidity 28    
Minimum Humidity 13    
Precipitation  
Precipitation 0.00 in 0.04 in 0.49 in (2017)
Month to date precipitation 0.30 0.32  
Year to date precipitation 11.00 10.48  
Snow  
Snow 0.00 in 0.20 in - ()
Month to date snowfall 0.0 1.6  
Since 1 July snowfall 0.0 3.4  
Since 1 September snowfall 0.0 3.4  
Snow Depth 0.00 in    
Sea Level Pressure  
Sea Level Pressure 29.69 in    
Wind  
Wind Speed 16 mph (SW)    
Max Wind Speed 36 mph    
Max Gust Speed 47 mph    
Visibility 10 miles    
Events Rain    
T = Trace of Precipitation, MM = Missing Value Source: NWS Daily Summary

Daily Weather History Graph

Daily Weather History Graph

Search for Another Location

Airport or City:

Astronomy

Oct. 08, 2019 Rise Set
Actual Time 7:10 AM MDT 6:35 PM MDT
Civil Twilight 6:42 AM MDT 7:03 PM MDT
Nautical Twilight 6:09 AM MDT 7:36 PM MDT
Astronomical Twilight 5:36 AM MDT 8:09 PM MDT
Moon 4:44 PM MDT (10/8) 1:53 AM MDT (10/8)
Length of Visible Light 12h 20m
Length of Day
11h 24m
Waxing Gibbous, 78% of the Moon is Illuminated
Oct 8
Waxing Gibbous
Oct 13
Full
Oct 21
Last Quarter
Oct 27
New
Nov 4
First Quarter

Hourly Weather History & Observations

Time (MDT) Temp. Dew Point Humidity Pressure Visibility Wind Dir Wind Speed Gust Speed Precip Events Conditions
12:53 AM 50.0 °F 10.9 °F 21% 29.81 in 10.0 mi SSW 15.0 mph - N/A   Clear
1:53 AM 51.1 °F 9.0 °F 18% 29.78 in 10.0 mi SSW 16.1 mph - N/A   Clear
2:53 AM 51.1 °F 9.0 °F 18% 29.76 in 10.0 mi WSW 10.4 mph 25.3 mph N/A   Clear
3:53 AM 50.0 °F 10.0 °F 20% 29.75 in 10.0 mi WSW 11.5 mph - N/A   Clear
4:53 AM 50.0 °F 10.9 °F 21% 29.74 in 10.0 mi SW 16.1 mph - N/A   Clear
5:53 AM 46.9 °F 12.9 °F 25% 29.76 in 10.0 mi WSW 9.2 mph - N/A   Clear
6:53 AM 46.9 °F 14.0 °F 27% 29.80 in 10.0 mi SW 6.9 mph - N/A   Clear
7:53 AM 48.9 °F 15.1 °F 26% 29.80 in 10.0 mi SSW 9.2 mph - N/A   Clear
8:53 AM 53.1 °F 15.1 °F 22% 29.80 in 10.0 mi SW 25.3 mph 34.5 mph 0.00 in Rain Light Rain
9:53 AM 57.9 °F 17.1 °F 20% 29.78 in 10.0 mi SW 15.0 mph 26.5 mph 0.00 in   Clear
10:53 AM 62.1 °F 19.9 °F 20% 29.75 in 10.0 mi SSW 18.4 mph 32.2 mph N/A   Clear
11:53 AM 66.9 °F 21.0 °F 17% 29.71 in 10.0 mi SW 27.6 mph 38.0 mph 0.00 in   Clear
12:53 PM 70.0 °F 19.9 °F 15% 29.68 in 10.0 mi SW 24.2 mph 36.8 mph 0.00 in   Clear
2:53 PM 73.0 °F 19.9 °F 14% 29.61 in 10.0 mi WSW 29.9 mph 46.0 mph N/A   Clear
3:53 PM 72.0 °F 18.0 °F 13% 29.61 in 10.0 mi WSW 28.8 mph 42.6 mph N/A   Clear
4:53 PM 70.0 °F 18.0 °F 14% 29.61 in 10.0 mi WSW 24.2 mph 36.8 mph N/A   Clear
5:53 PM 66.9 °F 19.9 °F 17% 29.62 in 10.0 mi WSW 17.3 mph 32.2 mph N/A   Clear
6:53 PM 59.0 °F 21.9 °F 24% 29.65 in 10.0 mi WSW 4.6 mph - N/A   Clear
7:53 PM 55.9 °F 21.9 °F 27% 29.65 in 10.0 mi SSW 4.6 mph - N/A   Clear
8:53 PM 53.1 °F 21.9 °F 30% 29.65 in 10.0 mi SW 8.1 mph - N/A   Clear
9:53 PM 55.9 °F 23.0 °F 28% 29.62 in 10.0 mi North - - N/A   Clear
10:53 PM 57.0 °F 21.9 °F 26% 29.60 in 10.0 mi SW 10.4 mph - N/A   Clear
11:53 PM 55.0 °F 23.0 °F 29% 29.58 in 10.0 mi SSW 12.7 mph - N/A   Clear